Weather in Kenay

Russia / Khabarovsk Krai     50°11′34″N   138°35′50″E
temp.,
°C
wind,
m/s
gust,
m/s
humid.,
%
clouds,
%
prec.,
mm/h
press.,
hPa
HPBL,
m
27 february, sat
sat2701:00−21sw1199100 0.1 103020
04:00−22ssw1199100 0.1 103120
07:00−24s129999 0.0 103220
10:00−18sse229298 0.1 1031243
13:00−10sw2675100 0.0 1029784
16:00−10sw277797 0.0 1026791
19:00−14sse229197 0.0 102520
22:00−14se129598 0.0 102234
28 february, sun
sun2801:00−13sse2295100 0.3 101880
04:00−11s21096100 1.6 1013535
07:00−12sw0197100 0.9 101253
10:00−8w41289100 1.6 1012954
13:00−6w51182100 0.2 1011962
16:00−8w6108591 0.3 10111038
19:00−11wsw51389100 0.3 1014760
22:00−13wnw399297 0.9 1017820
1 march, mon
mon101:00−17w3108865 0.1 1019311
04:00−21wsw248840 0.1 102283
07:00−22w229899 0.1 102325
10:00−19wsw128796 0.1 1025585
13:00−17wsw3578100 0.1 1024952
16:00−18wsw488398 0.1 1024984
19:00−20wsw389495 0.1 1026304
22:00−21wsw269897 0.3 1027298
2 march, tue
tue201:00−24sw229597 0.1 102720
04:00−25ssw129998 0.1 102821
07:00−28ssw2299100 0.1 103019
10:00−23ssw129195 0.1 1029335
13:00−18w256997 0.0 10281191
16:00−17wnw247053 0.0 10271168
19:00−24w119313 0.0 102920
22:00−27s12967 0.0 103119
3 march, wed
wed301:00−29sse1110044 0.0 103019
04:00−29sse1210069 0.0 102919
07:00−30sse12100100 0.0 102819
10:00−22s129297 0.0 1027266
13:00−14sw147494 0.0 1023834
16:00−14sw267796 0.0 1020898
19:00−17sse229195 0.0 101920
22:00−18sse229498 0.0 101740